Temp
83 94 100 95 86 89 79 78 86 82 83 86 88 86 79 81 76 70 83 86 91 93 91 90 80 81 82 81 81 81 80 80 81 81 81 80 80 81 80 80 80 81 82 82 82 81 81 82 82
99 94 96 96 85 77 78 85 81 85 86 90 88 87 83 75 83 84 85 86 88 91 91 90 80 81 81 81 81 81 81 80 80 80 81 81 81 80 81 81 81 81 81 82 82 82 82 82 82
96 97 94 93 88 80 77 84 84 84 85 87 83 86 82 76 83 84 88 89 91 94 95 86 79 80 81 81 81 81 80 81 80 80 80 80 81 81 81 81 82 82 83 83 82 81 81 81 82
98 98 97 91 81 82 84 86 85 84 87 88 88 77 82 84 83 86 88 90 92 95 95 83 79 79 80 80 78 77 78 77 78 78 79 79 80 81 81 81 81 81 82 82 82 81 81 81 80
99 97 89 84 81 83 86 86 88 84 84 86 87 76 76 83 87 88 86 88 91 93 94 88 79 79 79 79 78 78 79 78 78 76 77 77 76 78 79 79 81 81 81 82 82 81 81 80 80
93 95 84 80 80 83 86 88 87 86 85 85 83 79 77 85 84 85 88 88 92 91 92 90 80 78 78 78 78 78 77 77 77 76 76 76 75 75 75 75 77 79 80 81 81 80 80 80 79
91 91 85 85 81 81 83 89 86 86 86 81 87 76 80 83 85 87 89 90 90 93 93 92 92 82 78 78 77 77 77 76 76 76 76 76 76 77 77 77 78 75 76 78 79 79 79 79 79
97 98 85 87 82 80 84 85 87 86 80 86 88 78 78 82 85 88 88 89 89 90 93 95 94 95 93 90 77 77 77 77 77 76 77 79 81 80 80 79 77 77 77 77 77 74 77 78 78
96 89 84 84 84 83 87 84 85 86 83 82 85 84 82 84 86 86 84 87 89 89 88 88 90 93 93 91 85 82 81 79 80 81 79 84 87 86 86 78 75 76 76 76 76 75 75 77 78
92 90 84 90 90 87 86 86 83 82 81 78 78 82 84 86 86 87 88 88 88 89 91 90 86 86 86 87 86 86 86 84 81 81 81 84 84 82 84 82 77 77 76 77 77 76 75 76 87
91 86 88 87 91 91 85 84 87 83 78 81 78 80 84 85 86 89 90 90 89 90 89 86 83 85 87 85 86 84 83 83 80 77 77 79 81 81 83 82 83 82 80 82 81 82 84 82 85
84 88 89 88 89 89 85 86 82 83 79 83 84 84 84 85 88 88 88 89 89 88 88 88 86 84 81 85 84 83 81 80 79 77 74 76 78 77 77 79 79 78 80 78 79 80 77 79 79
86 86 88 89 89 87 88 82 80 78 82 84 84 84 84 86 86 87 88 89 89 87 86 87 84 81 81 80 82 80 79 78 78 77 74 75 75 73 75 76 77 77 78 78 78 78 77 75 77
87 87 87 88 86 86 81 80 81 78 82 81 83 84 86 85 85 84 84 84 83 83 84 85 84 81 83 78 77 78 77 77 76 75 72 72 72 71 73 74 75 76 76 76 74 75 75 77 77
88 82 84 85 85 82 86 76 74 80 81 80 82 83 84 84 85 83 84 82 83 82 81 82 83 81 78 78 78 77 76 76 75 75 72 70 70 68 67 72 73 74 73 74 72 72 73 74 75
84 85 77 82 84 80 81 70 76 80 80 79 81 82 82 82 84 84 83 82 80 81 79 79 82 81 78 76 77 77 75 75 74 73 72 69 69 68 67 70 70 71 71 70 63 64 63 69 72
83 78 79 77 85 81 79 72 77 79 79 79 81 82 81 81 81 81 82 81 80 78 77 78 76 77 77 76 78 77 74 74 73 73 71 67 68 67 66 69 68 66 70 63 60 60 61 61 67
77 78 79 77 81 79 76 73 77 78 79 79 81 81 81 80 79 80 79 79 77 74 76 75 75 72 74 76 76 77 76 74 73 71 68 65 66 64 64 67 61 63 61 60 58 56 59 61 64
84 81 78 81 80 78 77 75 75 77 78 79 80 80 80 79 81 80 78 74 71 72 72 71 70 69 72 72 71 71 70 70 70 69 66 64 62 60 60 59 61 62 60 58 57 55 54 59 65
83 80 78 75 76 78 76 73 75 77 77 80 80 80 80 79 78 75 74 69 70 70 69 69 68 67 68 71 69 69 68 70 69 69 67 64 62 60 61 60 60 60 58 59 57 55 52 56 59
81 80 78 77 73 76 73 70 68 76 77 80 81 82 80 77 76 75 72 72 73 70 70 69 68 67 66 67 69 68 69 69 68 67 66 65 63 59 58 61 60 60 58 56 58 57 53 50 55
76 87 82 75 72 71 75 70 69 73 71 75 78 79 78 78 79 77 74 72 71 71 71 70 68 66 67 65 66 63 64 63 64 65 61 64 62 59 59 61 60 58 59 55 58 60 55 53 50
81 85 81 77 76 73 69 68 74 73 68 72 76 79 80 78 78 77 76 73 73 73 71 70 68 66 66 65 64 65 62 65 65 62 59 60 61 60 60 61 60 58 60 58 58 58 54 57 50
84 80 79 78 78 67 75 70 76 70 72 74 77 79 76 77 78 75 75 74 73 75 73 70 68 65 65 65 64 62 58 58 59 59 60 60 60 60 61 61 60 61 60 60 57 58 56 53 52
82 77 69 66 68 68 72 70 76 76 76 79 77 76 75 77 77 74 73 74 72 71 72 71 67 65 65 65 64 63 60 59 59 60 60 59 59 59 61 61 60 61 60 61 59 59 56 57 51
80 81 73 60 65 71 71 67 74 77 76 79 82 77 76 77 78 76 74 73 73 70 70 70 68 66 66 65 64 63 62 62 61 62 61 60 63 62 61 62 61 60 59 59 59 58 59 57 58
80 74 84 72 73 69 78 74 69 72 73 78 76 74 73 75 74 73 72 72 71 69 68 68 67 66 66 66 64 60 61 60 61 63 61 62 63 64 62 62 62 61 61 61 60 60 56 56 58
84 88 73 75 61 60 72 69 75 67 70 73 72 72 73 73 73 72 72 70 70 69 68 68 68 66 66 66 62 61 61 63 63 63 62 62 62 62 62 59 60 62 58 59 59 59 61 57 58
79 80 79 77 74 66 64 72 75 76 74 72 73 74 73 73 73 72 72 70 70 71 70 67 67 66 66 65 61 61 63 64 64 63 62 61 61 63 61 62 60 57 57 56 54 57 59 58 58
85 83 81 73 68 73 70 70 74 77 79 75 75 75 75 75 74 73 72 70 69 68 68 66 65 66 66 65 62 62 64 64 63 63 61 62 61 61 62 62 59 59 60 60 59 57 57 59 57
MSLP
1010.70 1009.99 1009.23 1008.18 1006.22 1003.83 1004.32 1005.68 1006.03 1006.52 1006.93 1008.34 1008.55 1008.39 1010.07 1011.00 1011.53 1013.06 1015.55 1015.49 1014.84 1014.55 1014.85 1014.85 1015.58 1015.28 1015.09 1015.00 1015.01 1014.99 1015.06 1014.96 1014.94 1015.00 1015.14 1015.30 1015.04 1015.57 1015.97 1016.00 1016.05 1015.96 1015.95 1015.92 1016.10 1016.30 1016.41 1016.48 1016.46
1009.37 1009.55 1008.64 1006.19 1003.97 1003.10 1004.66 1005.61 1006.12 1007.18 1008.17 1008.75 1009.25 1009.66 1010.45 1012.14 1013.28 1014.14 1014.71 1015.69 1015.28 1014.88 1014.96 1015.47 1015.93 1015.57 1015.44 1015.39 1015.26 1015.43 1015.38 1015.44 1015.56 1015.44 1015.27 1015.34 1015.39 1015.49 1015.64 1015.83 1015.83 1015.97 1016.12 1016.10 1015.91 1016.20 1016.35 1016.43 1016.45
1009.40 1008.90 1006.51 1004.44 1003.30 1003.07 1004.92 1006.18 1007.36 1008.34 1008.89 1008.77 1009.76 1010.97 1011.85 1013.40 1014.14 1014.72 1015.63 1015.37 1015.28 1014.65 1014.86 1016.19 1016.23 1016.00 1015.79 1015.64 1015.66 1015.70 1015.73 1015.83 1015.90 1016.13 1016.01 1015.97 1016.02 1015.88 1015.94 1015.75 1015.61 1015.52 1015.77 1016.05 1016.14 1016.22 1016.11 1016.23 1016.34
1008.55 1007.56 1006.11 1003.93 1003.81 1005.20 1005.67 1006.86 1007.87 1008.34 1008.90 1009.48 1009.95 1011.69 1013.64 1014.96 1014.83 1015.54 1015.75 1015.38 1015.08 1014.74 1015.15 1016.54 1016.56 1016.33 1016.16 1016.04 1016.29 1016.33 1016.19 1016.33 1016.48 1016.62 1016.43 1016.34 1016.22 1016.04 1016.06 1015.85 1015.74 1015.63 1015.43 1015.40 1015.68 1015.72 1016.13 1016.17 1016.15
1008.18 1006.39 1004.48 1003.90 1004.89 1006.21 1006.87 1007.58 1007.88 1008.19 1009.08 1009.63 1010.25 1012.20 1013.78 1015.31 1015.56 1015.63 1016.08 1015.93 1015.37 1015.44 1015.64 1016.58 1016.98 1016.86 1016.68 1016.52 1016.55 1016.57 1016.60 1016.71 1016.78 1016.79 1016.72 1016.61 1016.62 1016.45 1016.42 1016.37 1015.84 1015.66 1015.55 1015.48 1015.46 1015.48 1015.46 1015.79 1015.94
1006.40 1005.60 1003.73 1003.77 1005.49 1006.80 1007.54 1008.03 1008.29 1008.67 1009.53 1010.19 1011.14 1012.54 1014.29 1015.48 1015.73 1016.07 1016.17 1016.08 1015.83 1015.92 1016.06 1016.43 1017.28 1017.17 1017.09 1017.17 1017.16 1017.05 1017.13 1017.23 1017.24 1017.33 1017.22 1017.04 1016.88 1016.81 1016.96 1016.45 1015.92 1015.69 1015.55 1015.02 1014.86 1015.04 1015.09 1015.16 1015.45
1005.65 1004.04 1003.40 1004.09 1005.61 1006.71 1007.83 1008.59 1008.56 1008.92 1009.58 1010.86 1011.28 1012.44 1014.40 1015.25 1016.09 1016.28 1016.28 1016.23 1016.08 1015.87 1016.04 1016.24 1016.44 1017.35 1017.57 1017.72 1017.79 1017.64 1017.63 1017.73 1017.61 1017.59 1017.50 1017.26 1017.13 1016.99 1016.88 1016.59 1015.84 1015.76 1015.68 1015.57 1015.15 1015.00 1015.31 1014.99 1014.98
1005.86 1004.31 1003.92 1004.37 1005.11 1006.75 1008.37 1009.01 1009.56 1009.64 1011.01 1012.02 1011.92 1012.35 1013.91 1015.62 1016.27 1016.35 1016.42 1016.42 1016.45 1016.34 1016.12 1015.77 1016.14 1016.26 1016.42 1017.15 1018.05 1017.93 1017.86 1017.82 1017.77 1017.75 1017.47 1017.10 1016.46 1016.38 1016.08 1016.03 1016.05 1016.14 1015.86 1015.55 1015.11 1014.23 1015.38 1015.28 1014.98
1006.32 1004.13 1003.82 1004.46 1004.98 1006.98 1008.55 1008.99 1010.72 1011.31 1011.57 1012.46 1012.61 1013.30 1015.13 1015.99 1016.21 1016.31 1016.47 1016.41 1016.39 1016.49 1017.02 1017.22 1017.00 1016.71 1016.84 1017.24 1017.86 1017.74 1017.89 1017.96 1017.79 1017.47 1017.52 1016.58 1016.57 1016.46 1016.07 1016.45 1016.43 1015.83 1015.20 1014.39 1014.47 1015.13 1015.39 1014.85 1014.38
1005.25 1003.63 1004.84 1005.40 1006.17 1007.18 1008.73 1009.46 1010.72 1011.34 1011.95 1013.19 1013.97 1014.95 1015.39 1015.67 1015.58 1015.40 1015.38 1015.64 1016.11 1016.44 1016.89 1017.47 1017.79 1017.90 1017.93 1017.99 1018.01 1017.97 1018.04 1018.35 1018.49 1018.31 1017.95 1017.50 1017.14 1017.14 1016.72 1016.19 1016.28 1015.97 1015.55 1014.73 1014.26 1014.21 1014.57 1014.24 1013.18
1005.38 1004.74 1006.29 1006.90 1007.19 1008.15 1009.29 1010.17 1011.04 1011.25 1012.05 1012.93 1013.98 1014.90 1015.26 1015.41 1015.38 1015.16 1015.24 1015.66 1016.23 1016.86 1017.48 1018.05 1018.39 1018.42 1018.10 1018.41 1018.16 1018.30 1018.59 1018.64 1018.80 1019.00 1018.87 1018.37 1017.84 1017.55 1016.95 1016.49 1016.15 1015.87 1015.47 1014.88 1014.54 1013.80 1013.28 1013.01 1012.40
1006.06 1006.60 1006.96 1007.78 1008.47 1008.83 1009.58 1010.77 1011.62 1011.94 1013.47 1013.89 1014.37 1015.03 1015.37 1015.25 1015.18 1015.45 1015.79 1016.13 1016.68 1017.17 1017.76 1018.04 1018.54 1018.75 1019.09 1018.60 1018.77 1018.86 1019.13 1019.15 1019.18 1019.35 1019.51 1018.95 1018.24 1017.99 1017.53 1017.01 1016.73 1016.20 1015.64 1015.48 1015.01 1014.54 1014.26 1013.75 1013.50
1006.38 1007.31 1007.79 1008.44 1008.99 1009.69 1010.43 1011.23 1012.30 1013.53 1014.29 1014.58 1014.90 1015.20 1015.26 1015.48 1015.78 1016.23 1016.66 1016.95 1017.25 1017.73 1018.31 1018.56 1018.93 1019.31 1019.26 1019.22 1019.03 1019.40 1019.35 1019.51 1019.51 1019.54 1019.79 1019.43 1018.80 1018.65 1018.04 1017.42 1016.97 1016.57 1016.08 1015.61 1015.13 1014.67 1014.27 1014.24 1013.60
1007.07 1007.59 1008.23 1008.79 1009.56 1010.30 1011.02 1012.04 1012.53 1014.38 1014.84 1015.18 1015.03 1015.18 1015.39 1015.79 1016.36 1016.93 1017.30 1017.71 1018.25 1018.57 1018.84 1019.17 1019.33 1019.57 1019.22 1019.59 1019.70 1019.57 1019.73 1019.67 1019.81 1019.87 1020.28 1019.97 1019.55 1019.21 1018.39 1017.57 1017.01 1016.49 1016.30 1015.94 1015.82 1015.13 1014.62 1013.79 1013.41
1007.39 1007.76 1008.52 1009.03 1009.70 1010.55 1011.04 1012.05 1013.15 1014.42 1014.91 1015.10 1015.19 1015.38 1015.72 1016.03 1016.60 1017.14 1017.78 1018.37 1018.77 1019.34 1019.85 1019.56 1019.31 1019.69 1019.82 1019.90 1019.79 1019.77 1020.04 1019.94 1019.97 1019.98 1020.24 1020.51 1020.19 1019.95 1019.38 1017.85 1017.07 1016.63 1016.68 1015.90 1015.98 1015.49 1014.68 1014.11 1013.40
1006.97 1007.25 1007.52 1009.00 1009.69 1011.01 1011.35 1011.92 1013.55 1014.47 1014.70 1014.86 1015.14 1015.51 1015.93 1016.49 1016.95 1017.65 1018.33 1018.92 1019.50 1019.76 1020.14 1020.12 1019.80 1019.82 1020.09 1020.26 1020.12 1019.99 1020.33 1020.15 1020.28 1020.37 1020.43 1020.82 1020.37 1020.20 1019.65 1018.44 1017.70 1017.28 1016.61 1016.27 1017.07 1016.45 1015.77 1014.69 1013.59
1006.50 1005.53 1006.43 1008.32 1009.42 1010.39 1011.03 1011.66 1013.41 1014.41 1014.58 1014.67 1015.10 1015.49 1016.06 1016.88 1017.63 1018.33 1018.92 1019.36 1019.98 1020.47 1020.47 1020.52 1020.86 1020.75 1020.63 1020.54 1020.10 1019.93 1020.25 1020.32 1020.58 1020.69 1020.75 1021.06 1020.61 1020.34 1019.78 1018.54 1018.16 1018.05 1016.80 1017.23 1017.28 1016.74 1016.03 1015.17 1014.12
1004.99 1005.29 1006.31 1007.14 1008.94 1010.19 1010.82 1011.67 1012.87 1014.09 1014.31 1014.41 1014.84 1015.27 1015.91 1016.73 1017.59 1018.53 1019.45 1020.03 1020.72 1020.98 1021.20 1021.38 1021.48 1021.64 1021.04 1020.70 1020.36 1020.01 1020.12 1020.55 1020.90 1021.13 1021.46 1021.45 1021.07 1020.94 1020.24 1019.00 1019.28 1018.54 1018.09 1017.72 1017.58 1017.12 1016.44 1015.52 1014.14
1004.79 1005.37 1005.86 1006.98 1008.72 1009.66 1010.23 1011.27 1012.51 1013.56 1013.93 1013.95 1014.34 1015.09 1015.67 1016.59 1017.66 1018.70 1019.75 1020.89 1021.33 1021.55 1021.82 1022.08 1022.19 1022.33 1021.87 1021.44 1021.10 1020.81 1020.79 1020.93 1021.21 1021.36 1021.58 1021.55 1021.40 1021.44 1020.71 1020.13 1019.22 1018.80 1018.29 1017.90 1017.59 1017.37 1016.79 1015.51 1014.25
1005.12 1005.22 1005.87 1007.99 1009.15 1009.60 1009.96 1010.84 1012.12 1012.89 1013.23 1013.40 1013.84 1014.49 1015.26 1016.26 1017.54 1018.91 1020.07 1021.17 1021.50 1021.89 1022.31 1022.54 1022.78 1022.97 1022.66 1022.04 1021.97 1021.83 1021.65 1021.38 1021.47 1021.25 1021.31 1021.42 1021.37 1021.25 1020.71 1020.18 1019.33 1019.04 1018.59 1017.88 1017.60 1017.31 1016.95 1016.13 1015.38
1005.13 1004.90 1005.72 1006.82 1009.07 1009.73 1010.03 1010.39 1011.63 1012.13 1012.92 1013.24 1013.62 1014.01 1014.79 1015.88 1016.98 1018.60 1019.95 1020.66 1021.33 1022.01 1022.39 1022.87 1023.15 1023.17 1023.22 1022.77 1022.26 1021.99 1021.57 1021.33 1021.35 1021.18 1021.41 1021.16 1021.23 1021.24 1020.83 1020.09 1019.56 1019.11 1018.83 1018.39 1017.65 1017.33 1017.15 1016.59 1015.89
1004.48 1004.52 1005.50 1007.18 1008.03 1007.66 1009.25 1007.63 1009.49 1010.80 1012.10 1012.78 1013.22 1013.83 1014.49 1015.56 1016.69 1018.21 1019.54 1020.51 1021.37 1021.95 1022.54 1022.97 1023.29 1023.40 1023.33 1023.41 1022.75 1022.73 1022.05 1021.83 1021.98 1021.90 1022.13 1021.39 1021.41 1021.37 1020.82 1020.25 1019.71 1019.33 1018.79 1018.52 1017.83 1017.47 1017.06 1016.80 1016.25
1004.20 1004.85 1005.57 1006.80 1006.74 1007.30 1008.44 1008.38 1007.66 1009.73 1010.90 1011.72 1012.46 1013.11 1014.00 1015.77 1016.94 1018.01 1019.09 1020.41 1021.26 1021.68 1022.33 1022.93 1023.31 1023.56 1023.68 1023.62 1023.46 1022.89 1022.88 1022.60 1022.51 1022.48 1022.23 1021.83 1021.39 1021.37 1020.90 1020.45 1019.92 1019.45 1018.75 1018.45 1018.05 1017.61 1017.58 1016.86 1016.78
1005.24 1005.39 1005.95 1006.25 1005.88 1005.71 1005.36 1007.31 1005.65 1008.27 1009.36 1010.60 1011.80 1013.01 1014.70 1016.09 1017.11 1018.42 1019.52 1020.46 1020.92 1021.31 1021.91 1022.72 1023.20 1023.64 1023.72 1023.62 1023.51 1023.45 1023.60 1023.36 1022.94 1022.59 1022.10 1021.81 1021.56 1021.21 1020.88 1020.55 1020.10 1019.48 1019.00 1018.49 1018.24 1017.67 1017.36 1017.25 1017.08
1004.77 1004.32 1004.05 1004.29 1003.86 1003.80 1005.62 1006.57 1005.88 1007.61 1008.90 1009.69 1011.27 1013.33 1015.14 1016.20 1017.27 1018.42 1019.34 1020.01 1020.74 1021.40 1021.86 1022.29 1023.17 1023.34 1023.67 1023.61 1023.46 1023.50 1023.56 1023.27 1022.91 1022.48 1022.15 1021.80 1021.47 1021.07 1020.75 1020.55 1020.16 1019.51 1019.13 1018.47 1017.98 1017.42 1017.15 1016.88 1016.81
1003.38 1002.96 1002.22 1002.28 1002.53 1003.01 1005.58 1005.60 1006.28 1008.12 1009.64 1010.26 1011.17 1013.47 1014.94 1015.99 1017.09 1018.19 1019.28 1019.99 1020.61 1021.55 1022.09 1022.36 1022.76 1023.19 1023.54 1023.63 1023.55 1023.69 1023.49 1023.17 1022.79 1022.45 1022.32 1021.82 1021.31 1021.10 1020.97 1020.41 1020.03 1019.68 1019.30 1018.76 1018.18 1017.41 1016.99 1016.74 1016.25
1002.77 1003.10 1002.69 1002.96 1003.53 1003.69 1003.32 1005.19 1007.84 1009.02 1009.72 1010.35 1011.75 1013.57 1014.94 1016.08 1017.41 1018.69 1019.72 1020.32 1020.98 1021.67 1022.30 1022.47 1022.84 1023.27 1023.64 1023.66 1023.80 1023.85 1023.70 1023.37 1022.94 1022.51 1022.17 1021.76 1021.34 1021.07 1020.73 1020.29 1019.77 1019.45 1019.05 1018.45 1017.95 1017.40 1017.19 1016.75 1016.20
1002.30 1002.12 1002.78 1002.84 1002.50 1002.48 1002.67 1004.61 1005.13 1007.91 1009.31 1010.55 1012.04 1013.60 1015.06 1016.54 1017.64 1018.93 1019.81 1020.59 1021.20 1021.84 1022.34 1022.72 1022.94 1023.31 1023.67 1023.66 1023.92 1023.81 1023.57 1023.33 1023.02 1022.63 1022.22 1021.82 1021.41 1021.21 1020.72 1020.50 1019.87 1019.31 1019.16 1018.58 1018.09 1017.50 1016.82 1016.58 1016.22
1002.48 1001.98 1002.37 1002.60 1002.74 1002.55 1002.84 1003.44 1006.09 1006.79 1008.69 1010.37 1011.93 1013.33 1015.03 1016.31 1017.59 1018.81 1019.81 1020.62 1021.33 1021.74 1022.09 1022.68 1023.00 1023.27 1023.51 1023.75 1024.05 1023.81 1023.51 1023.24 1023.01 1022.72 1022.38 1022.03 1021.67 1021.01 1020.80 1020.25 1020.02 1019.82 1019.46 1019.13 1018.69 1017.74 1017.01 1016.59 1016.34
1001.74 1001.35 1001.93 1001.96 1002.34 1002.99 1004.08 1005.14 1007.21 1007.70 1008.70 1010.54 1011.81 1013.42 1014.98 1016.29 1017.57 1018.72 1019.68 1020.49 1021.17 1021.83 1022.37 1022.83 1023.29 1023.39 1023.61 1023.74 1023.89 1023.75 1023.50 1023.29 1023.10 1022.80 1022.63 1022.15 1021.76 1021.31 1020.82 1020.38 1020.26 1019.88 1019.41 1019.01 1018.45 1018.25 1017.46 1016.61 1016.59
Wind_Speed
10 9 4 6 8 5 10 8 3 8 7 8 10 15 20 16 11 8 8 11 9 10 9 12 12 12 10 9 10 10 11 11 8 7 10 11 11 11 10 9 9 9 11 10 12 11 8 5 6
8 5 6 5 6 10 10 6 8 13 12 11 12 13 14 16 12 12 5 8 10 7 11 14 12 12 11 10 10 10 11 11 11 8 6 5 10 12 12 11 11 10 11 12 13 12 10 8 7
7 7 7 4 4 9 13 14 13 10 4 2 8 12 8 7 12 6 8 3 8 7 13 14 16 15 15 13 10 11 10 10 10 9 10 7 3 5 8 9 10 11 11 11 11 12 13 12 9
6 6 6 5 14 10 14 12 10 10 10 6 11 12 10 9 6 8 10 9 5 10 13 16 16 16 17 19 22 21 18 18 18 18 16 12 6 3 1 2 3 5 8 9 9 10 11 12 12
6 5 4 7 13 12 9 3 3 4 7 8 5 9 9 9 8 8 9 6 8 10 12 16 17 17 18 18 17 15 14 17 17 15 15 15 15 16 10 9 5 6 8 9 10 11 12 12 12
6 5 9 9 14 9 8 8 7 8 11 14 17 13 9 7 9 7 7 8 8 10 10 13 13 14 15 15 16 16 16 17 15 13 11 8 6 7 9 13 11 11 12 12 12 13 12 12 12
7 8 10 13 13 10 10 4 4 7 13 12 5 10 10 9 9 6 7 9 8 9 10 9 12 15 17 17 16 17 17 17 17 15 12 9 7 8 9 10 10 11 20 18 13 12 13 12 12
4 1 10 12 11 14 6 5 5 7 12 9 3 7 11 10 9 7 7 10 12 11 10 12 11 12 13 14 15 17 17 17 16 17 15 11 3 10 10 12 18 14 14 13 10 13 16 14 13
5 6 11 9 8 11 9 8 8 1 11 10 8 16 15 11 9 10 9 10 12 12 13 11 11 12 13 12 9 12 13 13 13 12 13 8 10 12 14 11 16 17 16 18 12 8 12 18 14
9 5 11 6 9 13 9 11 7 7 10 14 16 16 11 11 9 11 12 13 14 13 14 13 10 10 10 8 9 10 9 10 12 13 13 11 12 11 11 9 10 13 16 17 10 11 11 13 12
2 12 11 7 11 13 13 11 10 6 10 8 14 11 12 12 10 11 14 14 14 13 11 12 10 10 10 9 6 6 6 6 7 12 12 10 9 9 9 8 8 9 9 8 12 12 8 15 10
9 5 10 11 11 12 13 13 14 12 12 10 11 12 13 12 12 13 14 13 13 13 11 11 11 9 10 7 8 8 7 7 7 9 13 9 7 9 9 7 9 8 7 10 8 7 11 12 11
14 12 12 12 11 12 13 12 13 14 12 11 13 12 12 12 13 13 12 11 11 12 10 11 10 9 9 10 7 7 7 7 8 9 11 10 9 9 10 9 8 8 8 9 9 10 9 9 13
8 14 16 15 15 13 16 12 4 10 11 10 12 14 13 13 13 12 10 10 10 10 10 10 10 9 10 9 10 8 8 8 8 8 10 13 11 10 10 9 9 8 8 8 9 11 11 10 10
16 17 14 13 11 14 13 9 9 12 10 10 11 11 11 13 11 10 9 9 9 9 8 8 9 12 12 9 8 7 8 7 7 8 9 12 10 11 13 10 9 9 10 11 10 11 10 11 11
10 13 13 11 13 7 7 9 11 11 12 12 11 10 10 10 10 10 9 9 7 8 9 11 12 12 10 10 7 7 8 8 8 9 9 13 12 12 12 9 10 11 10 8 8 9 10 11 11
13 9 13 13 11 9 8 10 12 12 12 11 11 11 9 9 9 8 8 8 8 9 10 11 12 12 12 10 8 7 7 7 8 8 9 12 12 13 12 9 10 13 10 9 8 9 10 9 11
13 8 11 10 14 10 10 7 15 15 13 12 11 10 9 9 10 8 7 8 10 9 9 10 11 13 12 9 9 8 8 8 8 8 10 13 11 15 12 10 10 10 8 8 8 10 10 12 10
5 10 9 8 5 12 10 9 13 15 15 14 13 11 10 9 9 9 7 9 8 8 10 11 12 13 11 9 10 9 9 8 8 8 10 11 10 10 10 9 10 10 10 10 9 8 10 10 10
12 11 7 3 4 11 7 10 11 16 17 15 13 13 11 10 11 9 8 7 8 9 9 10 10 11 11 8 8 6 7 7 7 8 10 12 12 11 11 11 10 11 10 11 11 9 6 7 9
13 13 11 7 9 6 5 10 14 16 15 15 12 10 11 11 12 10 9 7 8 8 9 9 10 10 11 12 7 7 6 6 9 10 11 11 14 11 10 12 10 11 9 9 11 11 10 6 9
17 18 9 11 15 5 15 2 16 17 16 14 15 14 12 12 11 11 10 8 7 8 8 9 9 11 10 12 9 10 8 9 9 10 8 10 13 11 11 12 12 10 8 8 10 10 8 7 9
11 8 16 17 12 6 14 8 11 15 15 17 17 15 12 11 11 11 9 9 7 7 7 8 9 10 9 10 10 9 11 9 9 8 10 11 10 11 11 12 11 10 8 10 10 10 11 9 5
10 13 13 11 7 11 13 13 6 12 17 17 16 11 10 12 12 11 11 8 7 7 7 8 9 8 9 9 10 11 11 9 8 9 9 9 8 7 11 12 10 10 10 10 9 9 8 5 8
11 17 9 11 10 7 6 8 9 8 5 14 16 14 14 13 13 12 10 8 5 6 7 7 8 9 9 9 10 10 9 8 8 10 9 10 9 9 10 11 11 10 11 12 10 9 8 8 4
19 14 11 6 8 3 5 7 6 5 4 5 14 15 15 14 12 11 9 7 7 6 7 8 8 8 9 9 9 9 9 7 7 8 8 7 8 9 11 9 9 9 10 11 11 8 8 7 8
14 9 4 5 3 11 2 6 7 7 8 12 16 16 15 13 12 11 9 7 7 7 7 8 8 8 8 8 8 8 8 8 8 10 9 8 9 9 10 11 11 11 13 12 11 7 8 9 8
9 12 7 9 9 9 4 6 6 13 14 15 17 16 15 13 13 10 8 7 7 6 7 7 7 7 7 8 8 7 6 8 9 9 9 11 11 11 11 11 12 12 12 13 13 10 10 8 7
7 8 5 6 5 10 10 3 6 6 15 17 17 16 15 14 13 10 8 8 7 5 7 6 6 6 6 7 6 6 7 7 8 9 10 10 10 11 11 11 10 10 10 10 12 12 12 11 10
5 9 11 9 5 4 7 5 3 1 12 14 15 15 14 13 12 10 8 8 6 6 5 6 5 5 5 6 6 5 6 7 8 9 12 12 12 11 10 12 12 11 13 12 12 13 13 12 13
Wind_Direction
167 189 241 235 222 225 118 94 75 132 97 59 55 61 72 41 17 43 111 12 26 52 45 49 26 31 16 31 65 63 65 58 66 127 152 173 155 184 181 180 184 171 180 182 184 204 198 202 188
178 191 227 267 234 140 95 123 89 75 97 108 69 92 67 71 33 82 108 23 32 33 68 45 30 46 48 46 40 63 61 65 59 66 85 145 171 181 187 190 193 196 201 198 202 206 212 212 206
203 250 269 307 283 92 102 91 106 93 83 120 110 59 41 38 49 41 32 61 69 49 72 46 41 42 42 43 51 39 48 53 66 59 56 65 80 182 197 202 205 206 217 227 229 223 214 220 217
218 201 221 234 93 49 108 104 110 122 108 70 114 85 99 36 40 31 43 21 60 61 61 51 42 51 54 55 59 53 51 48 41 33 33 26 22 10 296 233 239 231 227 226 230 234 233 232 229
226 254 176 118 83 103 81 97 59 82 89 99 110 97 88 72 59 58 67 35 43 54 56 66 55 57 62 66 72 76 68 60 58 44 31 21 15 356 345 318 290 273 261 252 237 226 220 227 240
225 271 157 130 108 109 92 88 91 97 110 108 107 98 82 93 64 70 83 55 48 66 69 81 78 65 68 67 66 64 60 59 59 49 38 41 33 34 38 306 353 329 284 253 241 233 228 218 224
285 245 93 112 121 137 108 86 89 104 112 68 115 102 115 93 92 85 63 63 64 77 84 92 95 107 85 63 61 62 60 57 55 50 43 39 44 19 16 339 355 357 313 307 275 266 251 232 228
271 198 140 119 150 110 114 109 78 74 80 106 350 111 121 105 105 91 88 86 76 73 81 92 76 80 78 85 66 62 58 52 50 47 29 14 28 14 17 8 2 343 313 296 281 268 290 259 236
248 203 110 112 134 121 144 129 59 7 98 55 77 87 104 115 131 116 112 100 99 94 81 69 56 62 64 73 89 99 69 55 38 33 25 16 17 11 354 18 354 345 342 330 334 315 236 254 247
258 130 81 37 83 123 107 91 97 129 113 93 103 109 114 128 137 127 113 105 93 90 80 72 67 76 57 67 53 55 54 48 34 24 13 7 1 4 339 343 335 342 346 323 313 298 285 258 242
21 96 118 113 107 117 114 98 103 115 95 106 128 126 119 124 124 110 86 85 91 95 92 89 71 50 50 56 41 44 40 36 38 33 11 10 346 355 348 335 334 331 330 330 329 317 313 316 304
123 99 109 116 125 131 106 96 69 69 77 95 110 120 131 136 120 109 110 101 93 78 73 71 67 66 46 45 40 37 39 22 31 24 12 3 348 349 343 336 324 321 320 318 314 311 322 302 287
109 112 113 130 119 107 112 87 92 91 100 111 118 132 127 113 103 91 88 91 80 76 70 65 58 60 51 45 46 40 26 31 18 23 22 9 351 353 336 333 324 322 322 316 312 305 302 295 293
129 132 124 128 122 121 116 111 131 112 120 129 135 130 130 125 111 107 103 86 75 66 65 59 62 46 58 47 41 29 24 22 18 19 17 4 353 353 335 323 327 318 329 324 322 317 304 292 284
132 134 136 138 136 131 132 111 107 137 151 149 145 136 132 124 118 104 103 79 74 77 52 44 56 47 36 28 20 37 28 20 15 11 23 359 360 351 334 328 322 325 327 319 331 318 311 303 297
177 170 175 153 162 141 235 120 144 159 173 173 169 153 146 136 125 111 97 82 69 56 59 47 28 29 37 12 27 24 21 11 13 7 6 3 354 352 330 328 331 341 310 6 325 325 320 308 298
190 192 212 161 201 150 243 132 166 172 188 177 176 167 161 139 126 114 97 85 76 60 47 43 36 25 12 24 2 20 28 17 15 5 5 0 350 349 334 336 345 338 329 2 331 321 312 309 300
189 226 203 206 179 204 188 197 168 175 192 186 184 176 167 158 143 124 95 80 76 65 54 48 34 21 10 5 0 7 6 19 14 8 11 360 3 2 347 350 345 332 333 336 338 325 332 310 292
265 216 213 214 102 201 219 201 189 183 199 195 187 185 175 178 144 129 107 86 88 69 57 42 38 25 8 11 6 7 8 10 7 14 13 4 8 4 355 345 348 346 342 333 344 339 325 315 330
233 216 174 134 207 216 201 220 202 195 207 201 197 190 185 171 163 142 121 113 91 78 65 52 40 32 19 18 19 8 10 21 5 9 11 10 6 4 358 350 348 356 336 343 343 347 335 325 340
220 222 181 234 166 224 208 219 213 210 209 213 213 214 196 185 176 162 145 129 105 79 60 54 42 33 30 4 22 9 20 19 12 10 13 7 11 359 354 353 347 351 352 346 338 349 341 330 327
236 224 190 163 186 246 203 303 194 195 201 214 215 213 210 188 166 162 151 130 106 87 70 54 44 31 37 22 29 30 14 13 19 16 8 2 17 13 357 354 353 360 338 337 346 348 336 349 336
255 189 180 184 215 178 192 262 103 186 204 209 211 212 209 155 175 160 145 126 110 92 70 55 45 37 40 39 31 16 21 12 21 10 14 11 24 20 8 359 360 359 356 346 350 353 358 356 335
146 143 157 189 192 234 170 225 193 172 214 198 196 179 159 174 154 135 123 130 109 90 78 60 38 47 37 38 36 31 24 8 4 5 7 9 15 16 16 1 358 360 349 353 337 344 358 356 343
191 169 178 216 207 276 122 220 287 151 170 190 182 160 169 163 149 144 151 125 108 77 53 47 44 49 41 32 30 29 16 9 1 359 9 3 6 7 21 2 1 354 350 347 342 333 338 343 326
202 215 267 259 275 349 144 242 98 102 122 189 160 155 165 166 153 145 133 122 95 77 54 48 59 47 38 32 26 17 4 6 352 13 354 5 7 3 350 4 354 353 351 350 343 333 348 355 342
169 228 16 279 229 268 247 139 169 166 175 170 146 161 162 157 146 141 135 123 93 83 62 59 56 55 41 35 22 22 10 4 5 8 357 7 3 357 349 346 345 354 351 354 349 353 344 339 354
251 141 197 207 263 264 178 283 297 177 173 166 163 166 159 156 148 147 142 119 100 86 87 71 59 55 44 27 28 17 8 23 12 15 10 8 7 2 355 354 348 3 1 2 359 346 3 351 1
173 196 233 303 317 308 303 26 26 157 178 176 168 166 159 163 153 157 141 125 105 88 73 83 68 51 39 34 14 18 17 27 17 20 15 13 0 7 3 356 4 0 11 5 354 346 359 4 6
306 274 198 255 196 254 300 311 50 81 158 169 165 157 159 161 153 155 147 137 132 89 87 100 74 51 28 20 22 17 23 25 24 19 19 11 9 17 11 10 7 4 7 358 2 349 354 357 12